Location: Zagreb
(45.8000°N, 16.0000°E)
Time: 08:48:21
(UTC+01:00)

BlueWalker 3 - Pass Details

Date: 09 December 2022
Orbit: 499 x 517 km, 53.2° (Epoch: 01 February)

Event Time Altitude Azimuth Distance (km) Brightness Sun altitude
Rises 18:11:02 0° 300° (WNW) 2,627 6.3 -20.0°
Reaches altitude 10° 18:13:15 10° 298° (WNW) 1,734 5.3 -20.4°
Maximum altitude 18:17:08 66° 217° (SW) 556 2.2 -21.0°
Enters shadow 18:18:05 47° 155° (SSE) 682 2.4 -21.2°
